Location: Carnières
(50.1682°N, 3.3474°E)
Time: 14:26:08
(UTC+00:00)

MOZ.5/SAFIR/RUBIN 5/SL-8 - Pass Details

Date: 11 August 2024
Orbit: 671 x 698 km, 98.3° (Epoch: 14 September)

Event Time Altitude Azimuth Distance (km) Brightness Sun altitude
Exits shadow 01:02:56 48° 140° (SE) 909 4.1 -22.8°
Maximum altitude 01:04:10 72° 72° (ENE) 735 3.9 -22.8°
Drops below altitude 10° 01:08:54 10° 349° (N) 2,168 7.1 -22.5°
Sets 01:11:10 0° 348° (NNW) 3,093 8.1 -22.4°
